Temp
62 63 62 62 62 62 62 61 61 61 61 61 60 60 61 61 60 65 64 68 66 68 67 73 72 72 67 62 62 58 51 44 50 54 60 68 66 69 73 68 71 72 71 74 71
63 63 63 63 62 61 61 61 61 61 61 60 60 60 61 60 59 61 71 69 69 68 73 70 69 69 62 59 60 57 47 52 60 61 64 68 60 69 67 65 67 67 70 71 70
62 63 63 62 62 61 61 60 60 61 61 60 60 60 60 59 61 67 69 69 68 70 71 70 70 66 59 58 58 52 52 58 64 68 64 61 63 70 68 65 68 66 65 67 68
62 62 62 62 62 61 61 59 60 61 61 60 60 60 60 62 55 67 70 69 70 71 72 71 67 61 56 57 62 55 62 62 65 67 63 61 66 67 68 72 72 71 69 68 67
61 61 61 62 62 61 60 59 60 60 60 60 60 60 61 55 57 71 71 71 74 73 68 66 62 59 55 59 61 57 61 63 64 66 64 66 64 66 68 73 72 70 70 67 68
60 60 60 61 61 61 60 59 59 59 59 59 60 61 56 48 70 72 70 71 69 67 66 65 63 64 59 57 55 59 59 60 63 62 62 62 62 63 70 69 68 68 68 69 69
59 59 59 60 60 60 59 59 58 59 59 59 60 62 54 53 68 68 69 64 67 67 63 67 66 61 59 57 62 62 55 59 63 60 62 63 56 60 69 68 66 65 67 69 70
60 59 58 59 59 59 59 58 58 59 59 59 59 58 50 67 66 65 66 64 68 66 65 67 66 62 59 61 58 54 52 45 60 60 64 59 51 64 71 62 64 62 64 68 69
59 59 58 57 57 57 57 57 58 59 59 58 54 54 48 67 62 68 67 61 66 67 65 73 67 59 57 50 45 48 42 45 52 63 61 57 52 63 68 64 64 61 63 65 67
59 58 58 57 57 56 56 58 57 58 58 61 59 50 53 58 67 70 69 66 63 62 62 61 57 51 49 48 41 42 43 42 47 57 56 54 53 61 64 62 62 62 60 62 66
58 58 58 57 57 56 55 56 53 50 51 50 50 52 59 64 69 66 70 66 65 61 52 55 46 44 51 54 54 50 47 46 51 59 53 53 55 59 63 60 61 61 57 59 64
58 58 57 57 56 55 57 54 55 54 46 53 55 54 61 64 56 63 68 59 56 50 54 50 46 53 55 55 52 50 46 46 53 57 54 52 53 57 59 61 61 62 59 58 59
57 57 57 56 55 54 54 57 62 61 47 52 55 53 56 58 52 55 62 58 54 50 51 49 52 58 55 52 49 48 46 46 47 54 56 51 49 52 60 59 62 58 56 55 59
57 56 56 54 53 53 51 58 59 59 41 47 50 55 58 58 51 62 64 59 53 51 51 50 57 54 51 50 52 44 53 52 51 46 41 49 37 47 56 57 55 53 52 53 55
56 55 53 57 51 51 56 58 58 54 31 52 53 65 60 52 56 57 64 58 50 50 52 48 50 51 49 52 55 49 56 53 51 46 42 44 40 44 52 54 50 50 52 51 52
56 54 54 52 52 53 57 58 53 38 30 47 54 50 48 52 54 58 56 59 57 51 52 52 56 54 53 55 56 57 52 50 47 44 36 44 43 41 44 48 49 51 51 50 50
55 54 55 54 49 53 55 50 36 31 50 47 48 49 48 48 49 53 49 47 42 40 40 48 49 53 56 49 53 51 45 35 31 31 35 48 42 49 47 49 50 49 48 49 50
54 53 54 54 56 55 52 41 30 42 43 52 52 51 45 49 48 50 46 42 49 45 40 39 35 50 55 51 48 49 47 34 30 28 33 44 38 42 49 51 52 52 51 51 50
53 52 50 51 55 55 46 33 36 44 48 47 50 43 43 49 50 48 47 44 48 50 41 38 39 52 54 57 55 48 43 51 41 36 32 35 40 47 48 48 49 50 50 49 50
49 47 45 48 54 51 42 37 41 47 48 47 40 45 39 43 44 45 44 51 51 53 55 47 37 50 54 54 53 49 53 38 39 30 29 33 36 36 42 45 48 47 47 51 50
47 42 44 46 50 44 34 38 44 51 51 46 42 40 43 42 42 41 44 49 51 52 54 51 43 43 50 46 44 44 40 40 41 36 27 27 31 42 44 46 46 46 49 50 50
43 33 44 45 37 32 32 37 43 46 51 48 45 41 39 40 38 40 40 44 51 49 45 47 42 38 43 49 52 48 44 42 33 33 35 32 31 46 47 47 47 48 51 51 51
35 34 43 43 31 30 34 37 41 41 43 42 41 44 44 39 35 38 41 49 50 48 43 45 36 31 34 42 46 43 43 44 41 38 33 30 33 49 50 50 51 50 51 51 52
35 30 34 36 32 32 33 33 34 42 41 42 40 44 41 39 40 37 38 45 47 47 49 48 38 33 31 33 37 34 39 41 37 26 28 30 34 42 44 46 49 51 52 52 52
36 32 35 29 30 32 34 33 33 33 35 36 36 38 37 34 36 36 41 42 44 45 44 41 32 38 39 42 41 39 39 38 35 36 33 34 38 44 46 48 50 52 51 52 52
33 32 36 33 34 32 32 31 31 32 32 32 32 33 34 35 33 32 34 36 37 41 40 41 31 35 32 41 40 37 39 40 41 40 38 37 37 48 47 48 48 48 49 50 50
37 39 34 34 31 31 30 32 33 34 35 37 35 32 31 33 35 35 35 36 37 36 36 36 33 31 28 38 36 29 34 40 42 41 42 34 43 45 43 45 46 49 49 49 48
MSLP
1017.05 1017.26 1017.40 1017.70 1017.76 1017.75 1017.81 1017.74 1017.57 1017.40 1017.33 1017.25 1017.02 1016.59 1015.88 1015.14 1014.14 1012.90 1012.56 1011.68 1011.41 1011.27 1011.15 1010.71 1010.08 1010.32 1010.31 1010.53 1010.76 1011.30 1012.31 1012.68 1011.59 1010.67 1008.81 1007.70 1007.33 1006.14 1005.96 1005.73 1005.94 1006.25 1006.52 1006.45 1007.79
1016.64 1016.85 1016.93 1017.17 1017.42 1017.50 1017.53 1017.68 1017.57 1017.34 1017.24 1017.14 1016.97 1016.58 1015.80 1015.12 1014.57 1012.87 1011.50 1011.33 1011.33 1011.30 1011.15 1011.11 1010.89 1010.68 1010.66 1010.73 1010.96 1011.59 1012.08 1011.36 1010.35 1009.58 1008.87 1007.86 1007.71 1006.40 1006.29 1006.05 1006.20 1006.55 1006.76 1007.07 1007.68
1016.28 1016.49 1016.70 1016.76 1017.08 1017.33 1017.19 1017.33 1017.36 1017.34 1017.23 1017.12 1016.95 1016.61 1015.66 1015.09 1014.39 1012.07 1011.32 1011.36 1011.39 1011.18 1011.27 1011.27 1011.30 1011.10 1011.05 1011.00 1010.96 1011.21 1010.96 1010.45 1009.43 1009.21 1008.69 1008.24 1007.53 1006.48 1005.92 1005.66 1005.83 1006.28 1007.13 1007.65 1007.97
1016.05 1016.22 1016.42 1016.45 1016.71 1016.84 1017.05 1017.20 1017.17 1017.20 1017.19 1017.04 1016.74 1016.48 1015.51 1015.04 1013.97 1011.72 1011.50 1011.50 1011.25 1011.03 1011.08 1011.18 1011.31 1011.36 1011.47 1011.32 1010.94 1011.11 1010.36 1010.04 1009.26 1008.56 1008.65 1008.28 1007.44 1006.85 1005.98 1005.11 1005.18 1005.66 1006.34 1007.39 1008.07
1015.69 1015.94 1016.17 1016.25 1016.40 1016.54 1016.72 1016.90 1016.98 1016.98 1017.07 1017.12 1016.87 1016.47 1015.67 1015.48 1013.44 1011.42 1011.52 1011.44 1011.28 1011.18 1011.33 1011.64 1011.57 1011.49 1011.80 1011.72 1011.27 1010.76 1010.51 1009.98 1009.31 1008.73 1008.26 1007.82 1007.59 1007.08 1006.06 1005.51 1005.36 1005.77 1006.47 1006.91 1007.71
1015.38 1015.47 1015.85 1016.00 1016.17 1016.42 1016.56 1016.63 1016.85 1017.07 1016.93 1016.93 1017.07 1016.75 1016.36 1015.20 1011.63 1011.37 1011.59 1011.54 1011.69 1011.68 1011.33 1011.61 1011.90 1011.68 1011.71 1011.71 1011.94 1010.78 1010.69 1010.20 1009.06 1008.43 1008.08 1007.35 1007.04 1006.82 1005.69 1005.25 1005.66 1006.07 1006.18 1006.40 1006.58
1014.93 1015.19 1015.51 1015.70 1015.89 1016.18 1016.28 1016.61 1016.48 1016.99 1016.70 1016.99 1016.82 1016.77 1016.20 1013.72 1011.41 1010.99 1011.53 1011.67 1011.57 1011.82 1011.74 1011.27 1011.53 1011.94 1011.95 1011.79 1011.36 1011.08 1010.64 1009.88 1008.90 1007.99 1007.50 1006.80 1006.76 1006.12 1005.22 1004.96 1005.52 1005.67 1005.68 1005.90 1006.36
1014.33 1014.75 1015.03 1015.33 1015.50 1015.64 1015.89 1016.32 1016.13 1016.82 1016.45 1016.94 1016.82 1016.64 1014.80 1011.93 1011.54 1011.25 1011.15 1010.98 1010.93 1011.32 1011.65 1011.28 1011.54 1011.96 1011.95 1011.76 1011.41 1011.61 1011.10 1010.11 1008.63 1008.01 1007.41 1007.07 1006.60 1005.47 1004.40 1005.12 1004.98 1005.14 1005.28 1005.49 1005.92
1013.74 1014.12 1014.43 1014.98 1015.23 1015.45 1015.68 1015.80 1016.11 1016.53 1016.36 1016.96 1016.91 1016.40 1013.80 1011.51 1011.31 1009.68 1010.26 1010.72 1010.25 1010.38 1010.86 1010.94 1011.12 1011.86 1011.76 1012.21 1012.20 1011.98 1011.10 1010.38 1009.42 1008.02 1007.61 1007.28 1006.61 1005.49 1004.74 1004.91 1004.48 1004.77 1004.85 1005.19 1005.28
1013.07 1013.81 1014.07 1014.36 1014.98 1015.24 1015.38 1015.94 1015.97 1016.28 1016.50 1016.73 1016.37 1016.49 1013.13 1010.99 1010.05 1009.38 1009.53 1009.83 1010.09 1009.97 1010.85 1010.75 1010.90 1011.36 1011.89 1012.18 1011.70 1011.36 1011.25 1010.52 1010.02 1008.66 1008.17 1007.72 1007.26 1006.02 1004.88 1005.06 1004.45 1004.35 1004.83 1004.77 1004.86
1012.63 1013.20 1013.67 1014.26 1014.51 1015.17 1015.64 1015.99 1016.26 1016.40 1015.83 1014.55 1013.95 1012.91 1011.23 1010.63 1009.97 1009.35 1009.18 1009.38 1009.50 1010.22 1010.44 1010.27 1010.70 1010.38 1010.28 1010.37 1010.54 1010.99 1010.96 1010.45 1009.93 1008.94 1008.93 1007.89 1007.15 1006.18 1004.80 1004.84 1004.44 1004.18 1004.63 1004.77 1004.61
1011.86 1012.49 1013.22 1013.70 1014.27 1014.91 1014.90 1015.03 1014.60 1015.06 1014.36 1013.29 1012.54 1011.80 1010.84 1010.69 1009.72 1009.10 1009.26 1009.95 1009.64 1009.73 1009.97 1010.28 1009.40 1009.46 1009.77 1010.34 1010.72 1010.91 1010.80 1010.31 1009.44 1008.62 1008.65 1007.76 1006.76 1005.79 1005.11 1004.49 1004.10 1004.42 1004.88 1005.10 1004.58
1011.22 1012.09 1012.83 1013.25 1014.01 1014.51 1014.44 1014.40 1014.34 1014.75 1014.29 1011.55 1010.82 1009.81 1009.86 1010.14 1008.56 1008.13 1009.15 1009.14 1009.22 1009.22 1009.50 1009.32 1008.49 1008.60 1009.38 1009.68 1010.38 1010.33 1010.27 1009.99 1009.63 1008.82 1008.02 1007.60 1006.24 1005.57 1004.69 1004.38 1004.36 1005.08 1005.37 1005.48 1005.31
1010.81 1011.46 1012.26 1012.90 1014.01 1014.15 1014.03 1014.15 1014.66 1014.68 1014.34 1010.50 1009.36 1007.87 1008.46 1009.07 1008.43 1006.79 1007.30 1008.50 1008.54 1008.25 1009.39 1008.85 1008.18 1008.21 1008.70 1008.92 1009.39 1009.28 1009.26 1009.29 1009.36 1009.38 1008.73 1007.65 1006.36 1005.51 1005.10 1005.03 1005.53 1005.75 1005.94 1005.89 1005.23
1010.54 1011.13 1011.74 1011.97 1012.77 1013.59 1013.36 1014.01 1014.57 1015.04 1013.42 1008.69 1007.94 1007.11 1007.55 1008.41 1007.22 1006.25 1006.50 1008.16 1007.86 1007.91 1008.55 1007.11 1007.34 1007.69 1007.69 1007.41 1008.12 1008.08 1008.55 1008.85 1008.92 1008.86 1008.63 1008.13 1007.98 1005.32 1005.23 1005.45 1006.13 1006.60 1006.65 1006.51 1006.11
1009.85 1010.42 1011.40 1012.43 1012.66 1012.82 1012.95 1014.07 1014.64 1014.74 1011.07 1007.67 1006.99 1007.21 1007.90 1007.94 1007.28 1006.55 1007.38 1007.88 1007.88 1008.54 1007.65 1006.95 1007.02 1007.26 1006.84 1006.91 1007.19 1007.75 1008.37 1008.66 1008.76 1008.94 1008.15 1008.00 1007.86 1005.28 1006.04 1005.98 1006.52 1007.19 1007.28 1007.01 1006.49
1009.23 1009.88 1010.74 1011.39 1012.13 1012.76 1013.16 1013.52 1014.30 1012.28 1008.92 1007.53 1006.98 1007.06 1007.06 1007.20 1007.29 1006.82 1007.47 1008.15 1007.83 1008.44 1007.79 1007.60 1006.37 1006.41 1006.64 1006.84 1006.98 1007.58 1008.31 1009.29 1009.29 1009.47 1007.66 1007.16 1007.54 1005.75 1006.36 1006.73 1007.17 1007.58 1007.90 1007.61 1007.24
1008.72 1009.83 1010.05 1010.90 1011.53 1012.26 1012.80 1012.97 1012.19 1009.39 1008.60 1007.51 1007.21 1006.62 1006.90 1006.78 1006.73 1006.67 1007.06 1007.64 1007.67 1007.47 1007.16 1007.10 1006.16 1005.96 1004.93 1004.28 1005.44 1006.43 1007.70 1008.09 1008.68 1008.98 1008.62 1007.70 1007.23 1006.61 1007.02 1007.44 1007.56 1007.67 1007.87 1007.59 1007.62
1008.90 1009.89 1010.62 1011.00 1011.03 1011.64 1011.93 1011.29 1009.72 1008.60 1008.33 1008.19 1007.61 1006.93 1006.57 1006.46 1006.65 1006.56 1006.42 1006.39 1006.13 1006.66 1007.03 1006.63 1005.93 1004.41 1004.29 1003.82 1005.03 1005.47 1006.11 1006.51 1008.18 1009.00 1009.45 1008.62 1008.08 1007.87 1007.94 1008.03 1007.98 1007.87 1007.95 1008.05 1007.81
1008.83 1009.90 1011.13 1011.16 1010.97 1011.29 1011.03 1009.68 1009.26 1008.52 1008.35 1008.03 1007.87 1006.97 1006.94 1006.67 1006.90 1006.95 1006.30 1005.23 1005.54 1005.30 1005.64 1005.85 1005.63 1004.47 1003.79 1003.57 1004.23 1004.71 1005.36 1007.25 1007.68 1008.51 1008.92 1008.22 1008.02 1007.18 1007.79 1008.29 1008.20 1008.07 1008.03 1008.00 1007.97
1009.05 1010.66 1011.43 1011.43 1011.13 1010.88 1010.07 1009.32 1008.95 1008.59 1008.55 1008.54 1008.02 1007.78 1007.62 1007.50 1007.55 1007.31 1006.41 1005.60 1005.27 1004.79 1005.08 1005.51 1006.06 1005.03 1004.29 1003.88 1004.13 1005.39 1006.01 1007.24 1008.23 1008.61 1008.52 1008.60 1007.59 1006.67 1007.04 1007.61 1008.02 1008.16 1008.11 1007.97 1008.22
1009.79 1011.26 1012.10 1011.47 1011.38 1010.82 1010.90 1010.43 1009.62 1008.91 1008.58 1008.64 1008.87 1008.52 1008.36 1008.39 1008.40 1008.37 1007.31 1006.82 1005.77 1005.55 1005.49 1005.35 1005.89 1005.80 1005.10 1004.59 1004.36 1004.82 1005.75 1006.62 1007.60 1008.96 1009.18 1008.80 1007.94 1007.13 1007.34 1007.78 1008.02 1008.24 1008.42 1008.40 1008.16
1010.38 1011.61 1011.96 1011.86 1012.15 1011.45 1011.27 1011.07 1010.47 1010.10 1009.67 1009.34 1009.29 1008.95 1008.76 1009.15 1009.74 1009.30 1008.16 1007.30 1006.87 1006.18 1006.32 1006.15 1006.22 1006.61 1006.04 1005.73 1005.35 1005.55 1006.15 1006.63 1007.26 1008.23 1008.94 1009.12 1008.41 1007.64 1007.47 1007.73 1007.51 1007.86 1008.03 1008.24 1007.84
1011.39 1012.38 1012.73 1012.68 1012.66 1012.01 1011.79 1011.40 1011.10 1010.89 1010.87 1010.43 1009.92 1009.52 1009.57 1009.36 1009.74 1009.58 1009.11 1008.16 1007.89 1007.75 1007.36 1007.26 1006.90 1006.73 1006.37 1006.16 1006.09 1006.44 1006.55 1006.98 1007.24 1008.27 1008.52 1008.40 1008.24 1007.91 1007.74 1007.52 1007.16 1006.82 1007.17 1007.04 1007.31
1011.19 1012.26 1012.15 1012.73 1012.79 1012.26 1012.29 1011.82 1011.38 1011.77 1011.91 1011.64 1011.00 1010.51 1010.10 1010.02 1010.11 1009.99 1009.69 1009.26 1008.94 1009.01 1009.12 1008.92 1008.24 1007.91 1007.33 1007.04 1006.88 1007.05 1007.61 1007.81 1007.76 1007.81 1008.24 1008.15 1008.03 1006.80 1006.89 1006.86 1006.70 1006.60 1006.57 1006.32 1006.88
1011.51 1011.87 1012.25 1012.63 1012.32 1011.94 1012.04 1012.22 1011.98 1012.29 1012.27 1012.25 1012.14 1012.09 1011.15 1010.85 1011.08 1010.99 1010.78 1010.53 1009.57 1009.54 1009.64 1009.53 1008.69 1008.81 1008.43 1007.62 1007.24 1007.33 1007.23 1007.02 1007.24 1007.03 1007.14 1007.12 1006.60 1005.41 1006.03 1006.32 1006.57 1006.38 1006.28 1006.16 1006.10
1011.49 1011.70 1011.72 1012.35 1012.46 1012.17 1012.06 1012.19 1012.05 1012.06 1012.09 1012.29 1012.25 1012.39 1012.17 1012.22 1012.59 1012.52 1012.01 1011.33 1011.01 1010.61 1009.75 1009.59 1009.27 1008.98 1007.81 1007.38 1006.98 1007.09 1006.19 1005.99 1005.85 1005.66 1005.66 1006.09 1004.81 1004.71 1005.41 1006.01 1006.06 1005.73 1006.16 1006.41 1006.08
Wind_Speed
11 9 8 7 6 6 6 7 7 7 9 11 13 16 19 21 21 4 4 4 1 7 5 8 4 5 3 2 1 3 3 3 5 5 7 5 7 4 4 2 1 3 6 7 18
11 10 9 8 7 6 5 7 8 8 8 9 12 14 19 19 4 5 6 2 5 8 6 7 7 8 4 1 1 5 3 9 7 4 6 13 4 11 4 1 2 3 7 15 20
12 11 10 8 8 7 6 6 6 8 8 8 10 14 19 12 5 3 1 2 5 5 1 2 4 3 3 2 2 3 6 5 5 8 6 6 6 6 5 7 5 5 11 15 16
12 11 11 10 9 8 7 6 6 7 7 7 9 14 19 4 6 1 2 4 7 4 4 4 4 4 2 4 2 4 7 5 6 2 5 5 6 6 7 11 5 8 18 17 17
12 11 11 10 10 9 7 6 6 6 6 6 9 13 6 4 11 6 6 9 7 5 3 4 3 3 3 5 6 6 6 5 6 13 6 7 9 8 11 10 6 7 17 20 16
12 12 11 10 9 9 7 6 6 6 4 3 6 9 3 5 3 6 3 10 3 2 2 3 3 2 4 4 3 5 6 10 10 6 8 9 8 6 10 5 6 11 18 19 22
13 12 11 11 10 9 7 7 5 6 4 3 3 3 4 19 4 6 13 7 3 1 4 3 2 2 1 7 2 6 9 11 12 5 8 5 5 9 13 8 8 13 15 17 19
15 13 12 11 11 10 8 8 5 7 4 4 1 1 10 7 5 11 9 12 11 10 11 6 3 4 4 4 6 5 4 4 3 2 7 3 9 16 15 5 12 12 11 16 17
14 13 13 12 11 9 8 6 5 7 2 3 2 3 12 6 6 9 11 8 3 6 8 7 6 7 3 2 5 4 8 5 7 6 8 4 5 12 11 8 14 10 13 13 16
13 14 13 12 11 8 6 3 3 1 4 5 4 4 5 7 4 3 8 7 1 1 4 6 5 6 3 5 10 7 5 4 5 6 5 12 11 14 11 7 11 7 8 13 15
14 13 12 11 9 8 9 3 2 3 5 11 8 6 1 6 5 5 4 2 4 4 7 6 6 13 22 17 11 2 5 11 10 17 6 12 15 16 16 7 8 8 7 10 14
15 14 13 12 11 15 5 3 2 3 11 18 21 20 21 7 9 13 4 4 7 9 4 1 15 11 7 10 10 8 10 13 13 17 6 11 14 12 10 9 6 7 7 8 8
14 15 16 14 14 7 5 4 3 2 6 7 14 12 13 14 17 19 6 7 9 8 10 14 5 15 11 12 8 10 10 10 13 17 14 8 10 6 7 4 5 7 6 3 9
16 15 14 19 9 5 3 7 5 3 5 6 6 7 8 7 8 12 27 13 9 18 6 14 11 10 6 10 13 14 9 13 13 8 11 1 7 2 7 8 6 8 8 11 14
17 15 24 16 10 5 4 9 6 3 6 5 5 4 9 9 7 2 7 13 15 8 10 10 7 16 18 22 12 7 8 10 13 10 5 5 5 6 2 8 4 7 9 10 12
21 25 22 5 3 3 11 11 4 3 12 3 7 6 8 7 5 5 4 2 6 9 10 13 3 7 8 5 9 2 4 4 3 2 11 8 7 6 5 4 0 4 6 9 12
22 27 18 7 7 8 11 5 2 6 4 4 5 7 5 6 5 3 7 9 6 9 18 12 20 6 5 6 7 6 3 3 4 4 12 11 8 15 4 2 3 3 5 6 11
25 23 9 5 11 15 4 4 9 8 15 4 3 1 8 7 6 8 8 7 11 3 1 11 7 19 11 29 13 14 13 8 7 5 4 3 7 4 4 4 5 5 5 8 10
22 6 5 3 15 9 7 7 11 11 5 5 3 3 3 6 6 7 10 6 9 14 7 5 8 4 7 24 23 15 16 12 5 2 1 5 3 4 1 3 4 6 6 7 9
5 3 3 6 10 10 10 11 11 6 2 3 7 6 4 2 8 8 7 6 13 12 10 4 4 3 4 5 8 7 9 6 4 8 7 5 5 6 10 9 5 5 6 6 4
3 4 3 10 3 7 10 9 12 8 4 5 5 3 3 2 3 3 4 2 3 7 15 10 4 5 2 4 9 5 3 5 4 2 4 2 6 3 11 11 10 6 4 5 6
3 4 2 4 5 2 4 4 3 4 11 2 3 3 4 3 1 3 2 3 5 3 7 7 5 11 9 2 1 3 5 6 6 6 3 2 5 2 5 5 4 6 5 4 5
3 3 3 3 4 2 3 2 1 1 3 5 5 7 5 6 3 6 4 4 8 6 0 3 3 3 2 2 1 2 3 3 6 4 7 5 3 4 7 7 7 7 6 6 6
3 3 2 2 1 2 3 4 4 1 11 4 4 7 6 7 10 5 6 3 10 9 17 8 1 4 9 4 3 2 2 3 6 4 5 5 3 7 9 11 10 12 11 10 11
2 1 1 4 4 5 2 1 3 1 3 7 4 8 7 5 5 9 6 5 8 2 4 2 2 6 12 7 3 4 2 6 5 3 6 5 11 16 14 14 15 13 10 11 9
4 4 2 1 5 7 5 3 3 4 2 2 2 5 11 2 1 2 0 4 2 2 9 4 4 4 8 10 7 11 15 19 13 13 7 6 13 10 6 7 7 11 10 12 7
0 2 3 5 2 3 3 4 6 8 7 7 6 2 6 4 1 3 5 8 4 3 2 5 3 4 8 11 6 5 21 19 17 8 12 12 21 4 6 7 11 15 10 11 10
Wind_Direction
212 221 231 254 270 287 306 318 327 341 346 347 344 335 327 324 314 323 282 222 272 336 331 300 358 354 32 40 100 126 57 230 250 185 256 310 334 283 295 134 151 295 167 168 138
214 218 218 229 249 265 290 307 316 328 340 346 340 332 323 328 300 294 261 257 354 353 357 352 339 348 357 338 150 117 162 213 212 227 285 297 253 295 324 327 274 42 72 131 144
213 215 221 226 237 253 258 272 293 311 328 342 340 329 316 326 310 243 216 5 348 6 305 303 305 341 331 354 220 192 216 214 257 252 256 285 291 247 249 291 204 186 156 157 163
217 217 220 220 228 235 251 266 280 299 317 341 345 329 319 327 308 161 28 357 331 332 346 353 356 355 307 271 267 308 239 226 283 239 329 265 267 289 253 252 176 193 164 163 179
214 218 222 223 224 230 234 250 266 281 313 344 349 332 3 15 250 292 20 354 344 8 24 359 338 34 323 300 301 211 279 297 263 289 253 250 251 255 271 271 267 149 162 175 186
212 211 218 223 228 235 240 243 265 283 299 335 342 326 39 275 252 267 333 331 326 321 276 105 290 261 234 253 290 312 282 287 287 274 263 254 247 189 267 197 196 173 188 191 185
208 212 214 218 222 228 232 246 250 268 279 302 357 330 244 251 241 288 310 287 193 248 285 181 203 209 354 324 308 283 300 306 273 256 254 177 282 232 236 271 206 198 199 196 196
204 206 209 216 217 212 217 231 229 257 248 258 195 160 252 251 259 261 252 269 245 221 223 247 248 237 185 253 323 319 281 282 323 293 267 139 279 270 270 202 238 208 212 202 191
201 201 202 212 213 207 206 215 229 245 214 231 256 175 266 300 237 241 206 239 255 202 208 218 165 198 178 296 348 245 264 249 312 240 249 168 291 283 296 264 260 202 206 203 205
198 203 204 201 207 196 182 171 142 204 204 215 283 325 254 259 232 266 174 172 289 52 173 175 168 162 147 154 238 206 237 232 247 284 13 308 261 277 288 260 258 264 218 205 211
196 199 199 199 181 152 124 141 261 247 231 208 189 232 194 234 255 230 102 108 173 192 200 196 166 196 207 207 237 280 280 275 271 277 298 274 278 276 281 284 276 272 201 225 229
192 198 199 188 170 168 149 203 169 124 286 226 248 238 261 305 272 259 104 202 176 198 166 212 235 209 206 222 232 236 259 272 281 270 240 265 273 259 271 263 276 312 335 269 256
194 198 200 174 152 154 162 166 115 171 269 242 211 236 229 202 242 236 203 190 215 200 190 215 210 183 193 222 229 226 228 254 263 289 285 264 272 241 267 231 320 16 336 298 260
200 195 183 135 136 148 170 159 142 85 280 265 238 254 173 188 270 224 222 209 209 218 192 241 210 215 185 216 208 244 219 246 266 273 273 109 286 290 261 281 8 350 347 329 322
193 164 146 153 130 171 150 149 130 86 267 179 190 166 159 177 314 94 182 196 227 180 168 221 170 209 223 228 205 231 250 248 253 253 249 221 274 280 73 270 353 350 341 341 333
182 157 149 125 104 150 132 138 105 158 241 255 167 157 149 219 285 101 109 181 202 250 261 230 259 181 203 188 189 326 293 291 280 174 257 176 180 231 206 199 347 355 352 10 23
173 160 164 149 173 157 152 133 136 207 331 232 200 164 192 179 216 217 142 201 169 168 229 237 237 234 198 248 260 168 127 298 298 186 255 184 202 261 160 86 96 85 30 41 60
165 162 161 161 146 158 170 97 207 221 228 353 335 195 193 160 229 195 150 191 247 251 63 199 283 217 200 216 202 218 191 183 203 205 284 305 234 260 128 111 104 106 120 97 88
155 165 154 167 158 177 161 212 210 209 189 249 298 236 242 219 218 183 213 208 200 195 189 198 262 261 237 223 192 204 217 189 255 137 328 246 82 348 108 114 129 115 105 104 122
125 120 42 336 184 173 204 218 217 191 148 187 224 193 226 212 183 180 188 234 227 196 194 232 271 252 234 111 213 192 154 155 174 190 207 229 225 220 182 172 166 143 127 109 128
66 118 9 312 142 198 216 222 223 226 200 212 225 261 218 158 16 282 239 323 285 220 194 201 184 277 234 193 168 149 175 62 108 172 176 166 253 219 183 175 172 182 207 186 174
98 108 296 337 189 128 158 183 17 301 201 254 283 196 216 105 273 259 289 313 325 350 180 203 193 232 230 239 327 118 157 152 156 183 235 146 277 104 131 121 126 177 199 218 197
80 82 351 44 219 183 128 249 246 195 267 172 229 230 173 162 234 249 222 324 355 337 223 168 221 181 312 297 25 152 158 153 114 104 194 166 246 150 134 167 161 156 184 215 238
117 117 15 56 245 106 163 169 183 337 260 265 311 214 205 225 207 225 240 300 355 358 338 333 296 199 228 237 149 157 181 183 127 131 161 210 196 200 187 186 187 185 195 198 220
67 142 79 179 187 128 151 98 112 145 27 7 249 252 212 210 209 219 241 187 202 82 300 27 254 284 280 247 128 86 88 256 244 170 163 255 237 240 208 204 203 216 214 217 227
127 154 123 37 133 135 161 168 128 133 83 48 351 0 18 267 11 136 174 209 259 80 190 211 222 210 254 256 224 234 254 267 239 233 243 238 251 254 221 216 227 235 223 230 235
265 4 100 166 169 147 174 171 206 159 188 184 155 28 340 357 315 295 272 286 277 286 227 188 192 192 248 250 152 224 231 236 242 205 212 222 242 225 198 192 223 244 232 237 233